Theta_e
279 279 278 278 278 278 278 278 277 277 277 277 277 277 277 277 277 278 279 279 279 279 281 284 284 284 285 286 288 292 294 296 297 296 297 298 298 298 298 298 298 298
279 278 278 278 277 277 277 277 277 277 277 277 277 277 277 276 276 277 278 278 278 278 280 282 283 284 286 286 287 290 293 295 297 297 297 297 297 298 298 298 298 298
278 278 277 277 277 277 277 276 276 276 276 277 276 276 276 276 276 276 277 277 277 278 280 280 282 284 285 285 285 288 291 294 297 296 296 297 297 298 299 299 299 298
277 277 277 277 277 276 276 276 276 276 276 276 276 276 276 276 276 276 276 277 277 279 279 279 281 283 284 283 284 286 288 291 295 296 295 296 297 297 298 298 299 298
277 277 276 276 276 276 276 276 276 276 276 276 276 276 276 275 275 275 276 276 277 278 278 279 281 282 282 282 282 283 285 288 292 295 295 295 296 297 297 298 299 299
276 276 276 276 276 276 276 276 276 276 276 276 275 275 275 275 275 275 275 276 276 276 277 279 280 280 280 281 281 282 284 286 289 293 294 295 296 296 297 298 299 299
276 276 276 276 276 276 276 275 275 276 275 275 275 275 274 274 274 274 275 275 275 276 277 278 278 278 279 280 280 281 283 284 287 290 293 295 295 296 297 297 298 299
275 275 275 275 275 275 275 275 275 275 275 275 274 274 274 274 274 274 274 274 275 275 276 276 276 276 278 279 280 281 282 283 285 288 292 294 295 295 296 297 298 299
274 274 274 274 275 275 275 275 275 275 274 274 274 273 273 273 273 273 274 274 274 274 275 274 275 275 277 278 279 280 281 281 283 286 290 293 295 295 295 295 297 298
274 274 274 274 274 274 274 274 274 274 274 273 273 273 272 272 272 273 273 273 273 273 273 273 274 275 275 276 277 279 280 281 282 284 288 292 294 294 294 294 295 296
273 273 273 273 273 273 274 274 274 273 273 273 273 272 272 271 271 272 272 272 272 272 272 273 273 274 274 274 276 278 279 280 281 283 286 290 293 294 294 294 294 295
272 272 272 272 272 273 273 273 273 273 272 272 272 271 271 271 271 271 271 272 272 272 272 272 272 272 273 274 275 276 277 278 280 282 285 289 292 293 293 293 294 294
271 271 271 271 272 272 272 272 272 272 271 271 271 271 270 270 270 270 270 271 271 271 271 271 272 272 272 273 274 275 276 278 279 281 285 289 291 293 293 293 293 294
270 270 270 270 271 271 271 271 271 270 270 269 269 269 269 269 269 269 269 270 270 270 271 271 271 272 272 273 273 275 276 278 280 281 284 287 290 292 293 293 293 293
270 269 270 270 270 270 270 270 270 269 268 268 268 268 268 268 268 269 269 269 270 270 270 270 271 271 272 272 273 275 277 278 280 281 284 286 290 292 293 293 293 293
269 269 269 269 269 269 269 268 268 267 267 267 267 267 267 268 268 268 269 269 269 270 270 270 271 271 272 273 274 276 277 279 280 282 284 286 289 292 293 293 293 293
269 269 269 268 268 268 268 267 267 266 266 266 266 267 267 267 268 268 269 269 269 269 270 270 271 271 272 274 275 277 278 280 281 283 284 286 289 291 293 293 293 293
268 268 268 267 267 266 266 266 265 265 265 266 266 267 267 267 268 268 269 269 269 269 270 270 270 271 272 273 275 277 279 280 282 283 285 286 288 290 292 292 292 293
268 267 266 266 265 265 265 264 264 265 265 265 266 266 267 268 268 269 269 269 269 269 270 270 270 271 272 273 274 276 279 281 282 283 284 285 287 288 290 292 292 292
266 266 265 264 264 264 263 263 264 264 264 265 266 266 267 268 268 269 269 269 269 269 270 270 271 271 272 273 274 276 278 280 282 283 284 285 286 287 289 291 292 292
265 264 264 263 263 263 263 263 263 264 264 265 266 266 267 268 269 269 269 269 269 270 270 271 271 272 273 274 275 277 279 280 282 283 284 285 285 286 288 290 292 292
264 263 262 262 262 262 262 263 263 264 264 265 266 267 268 268 269 269 269 270 270 270 271 271 272 273 274 274 275 278 280 281 283 284 284 285 285 286 287 289 291 292
262 262 261 261 261 262 262 263 263 264 265 265 266 267 268 269 270 270 270 270 271 271 271 272 272 273 274 275 276 278 280 282 283 284 285 285 286 286 287 289 291 292
261 261 261 261 261 262 262 263 263 264 265 266 267 268 269 270 270 270 271 271 271 272 272 272 273 273 274 275 276 278 281 282 283 284 285 286 286 287 288 289 291 292
260 260 260 261 261 262 262 263 264 265 266 267 267 268 269 269 270 271 271 272 272 272 273 273 273 273 274 275 276 278 280 282 284 285 286 287 287 288 289 290 291 292
260 260 260 261 261 262 263 264 265 265 265 266 267 268 268 269 270 270 271 272 273 273 274 274 274 274 274 275 277 278 280 282 284 285 285 286 287 288 289 290 291 291
Wind_Speed
26 27 28 29 30 31 31 35 36 36 36 35 34 36 36 35 33 33 32 29 29 32 32 31 30 32 33 33 33 32 33 33 28 24 24 26 28 28 27 27 27 27
28 28 28 30 31 31 33 35 37 36 37 37 35 36 37 35 33 32 31 30 30 32 32 29 30 32 32 31 32 30 30 34 30 23 23 25 25 26 27 26 25 24
29 28 29 31 31 33 35 36 36 36 36 37 36 36 37 35 32 31 31 30 31 31 29 29 31 31 29 29 31 30 28 33 31 24 22 24 24 25 25 23 22 22
31 30 30 31 32 34 35 36 37 36 36 37 37 36 37 35 32 31 31 30 29 28 27 29 31 30 29 29 31 30 29 32 33 27 23 23 24 24 24 22 22 23
32 32 32 32 32 34 35 36 36 36 36 37 37 37 36 34 33 32 31 29 28 28 28 28 29 28 29 30 30 30 30 31 32 29 25 23 23 24 24 22 22 23
33 32 32 33 33 34 35 36 35 35 37 37 37 36 35 34 33 32 31 30 29 29 28 27 25 25 27 28 30 31 31 31 32 30 27 24 23 24 24 22 23 23
35 34 33 34 35 35 36 36 36 36 36 37 36 36 35 34 33 32 31 30 29 28 28 27 25 26 27 27 29 31 31 32 32 31 28 24 22 24 23 23 23 23
35 35 35 36 36 37 37 36 36 36 36 35 36 35 33 33 33 32 31 30 29 28 27 27 27 29 29 26 25 28 30 32 32 31 29 25 23 23 22 22 23 23
35 35 35 36 36 36 36 35 35 36 36 35 35 35 33 32 32 32 32 31 30 29 28 28 28 29 29 26 24 26 28 31 32 31 29 25 23 23 21 20 21 21
35 35 34 34 34 35 35 35 36 36 35 34 34 34 33 33 33 32 32 32 31 30 29 29 28 28 28 27 27 26 25 28 30 30 30 25 22 23 20 19 19 19
34 33 32 33 34 35 35 35 34 34 33 32 32 32 33 34 33 32 31 31 31 30 29 29 28 29 30 29 28 27 25 27 29 31 32 27 23 23 21 19 19 19
33 31 31 33 34 35 36 34 31 30 30 31 30 30 32 34 32 31 31 32 32 31 30 30 30 31 32 30 28 28 27 27 30 32 33 30 25 24 23 21 20 19
32 30 31 33 34 35 34 32 30 30 30 31 30 29 31 34 32 32 32 32 32 31 30 30 30 31 31 29 28 29 28 27 29 31 31 29 26 25 24 21 20 19
32 31 32 33 33 34 33 30 31 32 31 31 31 30 31 33 32 32 33 33 32 31 30 29 30 30 30 29 28 28 28 27 27 28 29 28 27 27 25 22 21 20
33 32 32 32 33 33 32 31 31 32 31 31 32 31 31 32 32 32 33 33 33 32 31 30 30 30 29 28 27 26 26 26 26 27 27 27 28 27 25 23 22 21
34 32 31 31 33 32 31 30 32 32 31 31 31 31 31 32 31 31 30 31 31 31 30 28 28 28 28 27 27 27 27 27 26 27 26 26 28 27 25 24 23 23
35 34 31 31 32 32 31 31 32 32 31 32 32 32 33 31 30 29 29 29 29 29 29 27 27 27 27 28 29 28 28 28 26 26 26 26 27 26 25 24 24 25
34 34 32 33 33 33 32 33 33 32 31 32 33 33 33 31 29 28 28 27 27 28 28 28 28 29 29 30 30 30 29 28 27 26 25 25 26 26 26 25 25 26
34 32 32 33 33 33 33 32 31 31 31 32 33 33 32 31 29 28 27 26 26 27 28 28 29 29 29 30 31 31 30 28 27 26 25 25 26 27 28 27 26 26
36 34 33 33 33 32 31 30 31 32 33 33 33 32 31 30 29 28 27 26 26 27 28 28 29 29 29 29 29 30 29 28 27 27 27 28 28 29 30 29 28 28
35 33 32 32 32 31 30 30 31 33 34 35 34 32 31 30 29 29 29 29 29 29 28 29 30 30 30 30 29 28 28 28 28 28 28 29 30 31 32 32 31 29
32 32 32 32 31 31 30 31 32 34 36 36 33 32 30 30 32 33 32 33 34 33 29 29 32 31 29 30 29 28 28 27 27 27 27 28 30 32 33 33 32 31
29 31 33 32 31 31 32 34 33 35 39 36 31 29 28 28 33 35 34 34 37 36 30 27 31 32 29 29 29 27 27 26 25 25 26 27 29 32 33 33 33 33
31 32 33 33 33 33 34 36 35 37 39 35 29 28 29 29 31 33 35 35 37 37 31 27 31 33 31 30 30 28 27 26 25 24 24 25 27 30 32 32 33 34
33 34 34 34 35 35 35 35 35 35 34 32 29 30 31 31 29 29 32 33 36 39 35 29 30 34 33 31 32 31 29 27 26 24 22 22 23 26 28 30 31 32
34 35 35 34 35 36 34 33 32 32 31 31 32 31 29 29 28 28 30 32 36 39 36 31 31 35 35 32 31 32 32 30 28 24 21 20 21 23 25 26 27 30
Wind_Direction
307 304 301 301 302 301 303 308 308 303 296 294 294 295 296 296 296 295 293 292 294 295 292 294 299 300 299 301 301 293 275 258 244 240 243 245 247 244 244 248 248 254
307 303 301 301 301 300 303 306 305 300 295 293 292 292 293 294 293 292 292 291 292 291 289 294 299 298 297 299 302 300 284 265 248 239 244 247 250 247 244 246 246 255
307 304 303 301 300 300 304 306 304 300 296 294 292 291 292 292 291 290 289 289 289 286 287 295 295 293 295 299 302 304 295 275 256 242 243 246 251 250 248 250 251 261
309 306 303 301 300 301 303 303 302 300 298 294 292 291 291 292 291 289 288 287 286 286 287 291 289 289 295 298 301 304 303 289 268 251 245 246 250 251 251 254 254 262
309 306 303 301 301 302 302 299 298 299 298 295 294 293 291 291 290 288 288 286 286 288 288 286 284 286 291 295 299 301 302 297 281 263 251 247 249 250 251 253 252 258
308 305 303 302 301 301 300 296 294 295 298 297 295 295 292 290 288 286 286 285 284 285 285 284 285 288 291 291 295 298 296 296 291 277 261 250 252 252 251 252 251 255
309 306 304 303 302 300 298 296 293 293 296 296 295 295 293 290 287 285 285 284 282 282 282 284 288 291 293 290 290 292 292 293 293 287 271 257 257 258 255 254 252 254
309 307 305 303 302 299 298 299 296 293 296 295 293 294 293 290 288 284 283 282 281 280 280 283 287 288 288 287 285 286 288 291 292 289 278 262 258 261 260 261 259 258
308 307 306 303 301 298 297 300 298 295 296 294 291 293 293 291 289 285 282 281 279 279 279 281 284 283 283 284 285 283 284 288 288 287 282 265 255 260 261 264 265 266
309 308 306 301 298 296 294 299 300 297 295 293 290 291 291 291 290 285 281 279 278 278 278 279 279 279 281 283 284 281 280 284 284 285 283 270 255 256 257 260 265 268
311 309 304 299 297 296 294 297 301 299 296 293 290 289 291 292 290 286 281 277 277 277 276 276 276 276 279 280 279 277 277 281 283 282 282 276 264 258 256 257 261 266
312 308 305 301 298 297 296 296 298 300 299 296 291 289 291 292 289 285 282 278 276 276 275 274 274 274 276 276 275 276 275 277 279 279 279 277 269 261 257 257 258 262
311 307 305 302 298 297 298 296 296 299 301 299 295 290 291 292 289 286 284 280 277 277 275 274 274 272 272 273 274 275 273 271 273 274 275 275 272 264 258 257 258 262
310 306 304 302 300 299 298 297 297 300 300 299 297 292 290 292 290 287 285 282 278 277 276 274 273 272 271 271 271 271 268 266 267 269 272 273 272 266 259 257 259 264
310 307 304 303 302 301 300 299 300 301 301 300 298 294 290 290 290 287 285 282 279 278 277 275 273 270 268 267 266 265 263 262 263 265 268 269 268 266 260 257 260 266
311 308 306 306 304 303 303 304 303 303 302 299 297 295 291 290 289 286 284 282 280 280 278 275 272 268 267 265 263 261 260 259 262 263 265 267 267 264 259 258 261 266
315 313 311 310 308 306 305 307 306 305 303 300 297 296 293 291 288 286 283 281 280 281 279 276 272 268 268 267 265 262 259 258 259 260 263 264 263 262 257 258 263 265
318 316 314 313 312 311 309 310 309 307 305 302 298 296 293 289 286 285 285 282 280 279 278 276 273 269 268 269 266 263 260 259 260 260 262 262 260 262 259 257 263 264
320 317 316 315 315 314 312 312 310 307 307 304 300 297 292 286 284 286 286 282 278 276 275 275 274 271 270 269 266 264 258 257 260 260 262 264 260 261 260 255 258 260
322 320 319 318 317 316 314 311 310 309 308 305 301 296 291 285 284 287 288 283 277 274 273 274 274 273 273 270 266 263 258 256 260 260 260 263 261 260 258 253 251 252
323 321 318 318 317 316 313 311 310 309 309 307 302 294 288 285 286 289 290 286 282 278 274 272 273 274 274 272 268 263 258 255 257 258 256 258 259 258 255 252 248 247
323 320 318 317 316 315 314 313 311 310 310 307 298 290 285 286 290 294 292 289 287 284 276 271 274 276 274 272 269 263 258 256 254 255 255 254 257 257 253 250 246 242
322 321 319 317 316 315 313 313 311 310 310 305 294 287 287 289 293 296 294 290 288 285 277 269 273 278 275 272 269 262 258 258 255 255 256 255 256 257 253 249 244 239
322 322 319 317 316 315 313 312 311 310 311 307 297 296 299 298 296 296 294 291 288 284 277 270 272 278 276 271 269 262 257 259 259 258 259 257 257 258 253 247 243 239
323 323 321 318 316 314 313 312 313 314 314 312 307 306 306 303 301 298 295 292 289 287 282 273 270 276 276 270 267 263 258 258 259 258 259 260 259 258 252 245 240 236
325 323 322 320 316 315 315 316 317 318 316 314 312 309 307 306 304 303 298 292 290 290 286 278 272 274 274 269 263 262 259 256 256 258 262 265 262 257 251 243 238 235